Regional Weather Roundup
Issued by NWS

Home | Current Version | Previous Version | Graphics & Text | Print | Product List | Glossary On
Versions: 1 2 3 4 5 6 7 8 9 10 11 12 13 14 15 16 17 18 19 20 21 22 23 24 25 26 27 28 29 30 31 32 33 34 35 36 37 38 39 40 41 42 43 44 45 46 47 48 49 50
000
ASUS43 KMPX 222310
RWRMN
WEATHER ROUNDUP FOR MINNESOTA
NATIONAL WEATHER SERVICE TWIN CITIES/CHANHASSEN MN
600 PM CDT WED OCT 22 2014


NOTE: "FAIR" INDICATES FEW OR NO CLOUDS BELOW 12,000 FEET WITH NO
SIGNIFICANT WEATHER AND/OR OBSTRUCTIONS TO VISIBILITY. N/A MEANS
CURRENT SKY AND/OR WEATHER CONDITIONS ARE NOT AVAILABLE.

MNZ060>063-068>070-230000-
   Twin Cities Metro

CITY           SKY/WX    TMP DP  RH WIND       PRES   REMARKS
TWIN CITIES    CLOUDY    58  41  53 SE13      30.04F
ST PAUL        PTCLDY    57  42  57 SE13G24   30.05F
CRYSTAL        MOCLDY    59  41  51 SE16G23   30.02F
BLAINE         CLOUDY    59  43  55 SE21G28   30.03F
LAKEVILLE      MOCLDY    57  43  58 SE12G20   30.05S
EDEN PRAIRIE   MOCLDY    59  42  53 SE20      30.02F
SOUTH ST PAUL  PTCLDY    58  40  49 SE12G22   30.05F
LAKE ELMO      FAIR      55  41  58 SE12G21   30.07S
$$
MNZ001>005-007-008-013>017-022>024-027-028-230000-
   Northwest Minnesota

CITY           SKY/WX    TMP DP  RH WIND       PRES   REMARKS
BEMIDJI        CLOUDY    57  44  59 S10G18    29.90S
HALLOCK        LGT RAIN  57  54  88 SW9       29.79R
ROSEAU         CLOUDY    61  48  63 S16       29.82F
WARROAD        CLOUDY    61  48  63 S10       29.84S
THIEF RVR FALL CLOUDY    61  45  55 S14       29.83S
CROOKSTON      LGT RAIN  59  52  77 SW10      29.84R
FOSSTON        CLOUDY    59  45  58 S15G24    29.86S
DETROIT LAKES  CLOUDY    61  45  55 S12       29.88S
MOORHEAD       LGT RAIN  57  57 100 SW5       29.87S
PARK RAPIDS    CLOUDY    58  43  57 SE14      29.91F
MAHNOMEN       CLOUDY    60  46  58 S10G22    29.86S
$$
MNZ006-009>011-018-025>026-230000-
   North Central Minnesota

CITY           SKY/WX    TMP DP  RH WIND       PRES   REMARKS
BAUDETTE       CLOUDY    59  43  55 S13G23    29.88R
FLAG ISLAND    CLOUDY    54  46  76 S20       29.83R
INTL FALLS     PTCLDY    58  42  55 S15G23    29.92R
WASKISH        CLOUDY    57  45  62 SE5       29.90S
BIG FORK       PTCLDY    55  43  62 S12       29.95R
LONGVILLE      CLOUDY    54  43  66 SE9G17    29.96S
GRAND RAPIDS   MOCLDY    54  39  58 S13       29.98R
CRANE LAKE     PTCLDY    54  39  58 SE3       29.98S
ORR            PTCLDY    55  37  50 S12G17    29.94S
COOK           PTCLDY    54  39  58 SE9       29.99S
WALKER         FAIR      55  42  61 SE9       29.93S
$$
MNZ012-019>021-037-230000-
   Northeast Minnesota

CITY           SKY/WX    TMP DP  RH WIND       PRES   REMARKS
DULUTH         MOCLDY    51  39  63 SE9       30.04S
ELY            CLEAR     52  36  54 S10G20    30.02F
HIBBING        PTCLDY    56  38  50 S9G22     30.00S
EVELETH        PTCLDY    52  37  58 SE10G18   30.03R
DULUTH HARBOR  MOCLDY    57  39  51 SE3       30.06S
TWO HARBORS    CLOUDY    54  30  40 E10       30.05S
SILVER BAY     CLEAR     46  39  76 NE8       30.07S
GRAND MARAIS     N/A     46  36  68 NE9       30.13F
G MARAIS ARPRT CLEAR     39  28  65 E5        30.11F
$$
MNZ029>031-032-039>041-046>048-054>057-064-230000-
   West Central Minnesota

CITY           SKY/WX    TMP DP  RH WIND       PRES   REMARKS
FERGUS FALLS   RAIN      61  50  67 S13       29.89R
WHEATON        RAIN      54  52  94 CALM      29.90F
MORRIS         DRIZZLE   63  52  67 SE9       29.89F
ALEXANDRIA     CLOUDY    62  46  55 S16       29.93S
ELBOW LAKE     RAIN      58  52  80 S10       29.89S
WADENA         CLOUDY    61  45  55 S15G24    29.91F
GLENWOOD       MOCLDY    63  46  55 SE14      29.94S
APPLETON       LGT RAIN  64  50  59 S6        29.91R
BENSON         CLOUDY    64  46  52 S9        29.92R
ORTONVILLE     RAIN      61  55  82 CALM      29.90S
MADISON        LGT RAIN  64  57  77 SW7       29.92R
WILLMAR        FAIR      64  45  48 SE15      29.95S
$$
MNZ033>034-036-042>043-049>051-058-059-230000-
   Central Minnesota

CITY           SKY/WX    TMP DP  RH WIND       PRES   REMARKS
ST CLOUD       CLOUDY    62  43  49 SE14      29.98F
SAUK CENTRE    FAIR      60  45  57 SE14      29.95S
PAYNESVILLE    CLOUDY    59  43  56 E14G22    29.96S
AITKIN         MOCLDY    57  43  58 SE10      29.98R
PINE RIVER     CLOUDY    55  45  67 SE9G16    29.99S
BRAINERD       CLOUDY    56  42  59 S9        29.98S
STAPLES        CLOUDY    57  43  58 SE8       29.94F
LONG PRAIRIE   FAIR      59  43  55 SE14      29.95S
LITTLE FALLS   CLOUDY    57  41  54 SE9       29.97S
LITCHFIELD     CLOUDY    63  45  51 SE12G17   29.97F
BUFFALO        MOCLDY    59  42  52 SE12G21   30.01S
MAPLE LAKE     CLOUDY    60  46  59 SE10G21   30.01R
$$
MNZ037-044-045-052-053-230000-
   East Central Minnesota

CITY           SKY/WX    TMP DP  RH WIND       PRES   REMARKS
PRINCETON      MOCLDY    59  43  55 SE14      30.01F
MORA           MOCLDY    54  41  62 SE9       30.04S
CAMBRIDGE      PTCLDY    59  43  55 SE9       30.01S
RUSH CITY      PTCLDY    55  39  54 SE14G23   30.04S
MOOSE LAKE     TSTM      50  43  76 S5        30.02S
HINCKLEY       FAIR      54  41  62 SE8       30.04S
CLOQUET        MOCLDY    55  36  47 SE8       30.03S
MCGREGOR       PTCLDY    55  41  58 SE13      30.01S
$$
MNZ071>073-080-081-089-090-097-098-230000-
   Southwest Minnesota

CITY           SKY/WX    TMP DP  RH WIND       PRES   REMARKS
MONTEVIDEO     CLOUDY    66  48  52 S5        29.93R
GRANITE FALLS  CLOUDY    67  47  50 SE12      29.93R HAZE
CANBY          LGT RAIN  61  57  86 SW8       29.93R
MARSHALL       CLOUDY    63  54  72 SW12      29.93R
REDWOOD FALLS  CLOUDY    65  46  50 SE20      29.95R
OLIVIA         CLOUDY    63  45  51 SE14      29.94S
PIPESTONE      RAIN      59  55  88 S6        29.96S
WINDOM         CLOUDY    64  46  52 SE23      29.96S
WORTHINGTON    CLOUDY    66  48  52 S12G17    29.96S
JACKSON        MOCLDY    63  45  51 S16G22    29.99R
TRACY          CLOUDY    69  49  49 SW14G22   29.96R
SLAYTON        RAIN      61  57  87 SW16G28   29.98R
$$
MNZ065>067-074>077-082>085-091>093-230000-
   South Central Minnesota

CITY           SKY/WX    TMP DP  RH WIND       PRES   REMARKS
MANKATO        CLOUDY    61  39  44 SE21G28   30.02F
NEW ULM        CLOUDY    63  46  55 S18       29.98S
ST JAMES       CLOUDY    63  45  51 SE18G29   29.98F
FAIRMONT       CLOUDY    61  43  51 SE22G28   30.01F
GLENCOE        CLOUDY    62  46  56 SE16G23   29.98F
FARIBAULT      MOCLDY    57  43  58 SE18G25   30.06S
OWATONNA       MOCLDY    57  39  51 SE14G20   30.06F
WASECA         MOCLDY    55  36  47 SE12G18   30.07S
ALBERT LEA     MOCLDY    57  43  58 SE17G24   30.08S
$$
MNZ078>079-086>088-094>096-230000-
   Southeast Minnesota

CITY           SKY/WX    TMP DP  RH WIND       PRES   REMARKS
ROCHESTER      MOCLDY    56  39  53 S15G24    30.12F
STANTON        PTCLDY    59  40  48 SE12G18   30.05F
DODGE CENTER   MOCLDY    55  43  62 SE13      30.10S
WINONA         PTCLDY    55  37  50 SE8       30.14F
AUSTIN         PTCLDY    55  41  58 S9        30.10S
PRESTON        CLEAR     54  38  55 S13       30.14S
$$
ABBREVIATIONS USED IN REMARKS
   TC - TEMPERATURES IN CELSIUS
  WCI - WIND CHILL INDEX
   HX - HEAT INDEX
  VSB - VISIBILITY
$$



USA.gov is the U.S. government's official web portal to all federal, state and local government web resources and services.